[[{"header":{"parameterUnit":"m.s-1","parameterCategory":1,"la1":30.2991,"la2":30.254,"lo1":-89.0895,"lo2":-89.0444,"dy":0.0017,"dx":0.0017,"nx":28,"ny":28,"refTime":"2024-10-13T21:00:00:Z","depth":0,"parameterNumber":2,"parameterNumberName":"U-component_of_WINDS"},"data":[0,0,0,0,0,0,0,0,0,0,0,0,0,0,0,0,0,0,0,0,0,0,0,0,0,0,0,0,0,0,0,0,0,0,0,0,0,0,0,0,0,0,0,0,0,0,0,0,0,0,0,0,0,0,0,0,0,0,0.8065,0.8066,0,0.8118,0.8118,0.8119,0.8022,0.8018,0.8015,0.8012,0.8075,0.808,0.8085,0,0,0,0,0,0,0,0,0,0,0,0,0,0.789,0.7894,0.8065,0.8066,0.8066,0.8118,0.8118,0.8119,0.8022,0.8018,0.8014,0.8011,0.8074,0.8079,0.8085,0,0,0,0,0,0,0,0,0,0,0,0,0,0.7957,0.7895,0.8065,0.8024,0.8021,0.8117,0.8118,0.8119,0.8023,0.8018,0.8013,0.8009,0.8072,0.8079,0.8086,0.8228,0,0,0.8108,0.8111,0,0,0,0,0,0,0,0,0.7953,0.7963,0.8029,0.8027,0.8024,0.8058,0.808,0.8156,0.8024,0.8023,0.8012,0.8006,0.8074,0.8081,0.8102,0.8231,0.8233,0.8108,0.8112,0.8116,0.8118,0,0,0,0,0,0,0,0.7949,0.7961,0.8086,0.8031,0.8027,0.8006,0.801,0.8094,0.8076,0.8022,0.8015,0.8022,0.8072,0.8095,0.8102,0.8234,0.8108,0.8114,0.8119,0.8121,0.8483,0.8488,0,0,0,0,0,0,0.7948,0.7957,0.8084,0.8088,0.7975,0.8013,0.8018,0.8052,0.8074,0.8073,0.8027,0.8018,0.8085,0.8094,0.8104,0.8271,0.8115,0.8122,0.8126,0.8477,0.8484,0.849,0,0,0,0,0,0,0.7944,0.796,0.8082,0.8021,0.8035,0.8021,0.8061,0.8056,0.8079,0.8077,0.8075,0.8053,0.8082,0.8094,0.8197,0.8272,0.8125,0.8132,0.8471,0.8479,0.8487,0.8607,0,0,0,0,0,0,0.794,0.7959,0.8011,0.8022,0.8038,0.8172,0.8065,0.806,0.809,0.8079,0.8101,0.8101,0.8079,0.8187,0.8204,0.8279,0.8137,0.8464,0.8475,0.8484,0.8597,0.8618,0.8637,0,0,0,0,0,0.7934,0.8045,0.8014,0.803,0.8102,0.8176,0.8186,0.8156,0.8097,0.815,0.8149,0.81,0.8261,0.8198,0.8217,0.8295,0.8459,0.8472,0.8484,0.8588,0.8614,0.8637,0,0,0,0,0,0,0.8046,0.8046,0.8011,0.8129,0.8153,0.816,0.8226,0.8185,0.8229,0.8217,0.8181,0.8187,0.8298,0.8307,0.8237,0.8434,0.8351,0.8367,0.8424,0.8449,0.8469,0.8465,0.8143,0,0,0,0,0,0.8084,0.8141,0.8139,0.8243,0.8257,0.8239,0.8271,0.8245,0.827,0.8281,0.8287,0.8316,0.8373,0.8412,0.8464,0.8598,0.8602,0.8661,0.8681,0.8698,0.8713,0.8784,0.8811,0.8529,0.8529,0.8529,0,0,0.8164,0.8171,0.821,0.8266,0.8281,0.8344,0.8249,0.832,0.8367,0.8293,0.8389,0.8395,0.8425,0.8544,0.8596,0.8555,0.8791,0.8713,0.8727,0.8732,0.88,0.8826,0.885,0.8537,0.8536,0.8535,0,0,0.8341,0.8351,0.8439,0.8456,0.848,0.8467,0.8489,0.8502,0.8502,0.8597,0.8543,0.8601,0.8699,0.8722,0.8747,0.8934,0.8891,0.8952,0.9059,0.9129,0.9151,0.9171,0.9238,0.9262,0.8967,0.8967,0.8968,0,0.8438,0.8527,0.849,0.8564,0.8591,0.8524,0.8613,0.8633,0.8675,0.8696,0.8648,0.877,0.8786,0.8909,0.8954,0.8977,0.9002,0.8949,0.915,0.917,0.9187,0.9251,0.9276,0.8975,0.8974,0.8973,0.8972,0,0.8645,0.8709,0.8777,0.8815,0.885,0.8932,0.8909,0.895,0.8922,0.8916,0.9015,0.9031,0.9085,0.9113,0.9088,0.9233,0.9207,0.9156,0.9071,0.9222,0.9281,0.9305,0.8985,0.8982,0.898,0.8978,0,0,0.8894,0.8909,0.8935,0.8952,0.8973,0.9023,0.9103,0.9153,0.9189,0.922,0.9287,0.9373,0.9325,0.9353,0.933,0.9392,0.9539,0.9334,0.9334,0.9371,0.9701,0.9739,0.9768,0.9511,0.9515,0.9519,0.9699,0,0.9069,0.9202,0.9172,0.9305,0.9364,0.9301,0.9371,0.9394,0.9391,0.9442,0.944,0.95,0.9433,0.945,0.9508,0.9509,0.9605,0.9496,0.9575,0.9578,0.9569,0.9799,0.9839,1.0008,0.9722,0.9726,0.9728,0,0.9291,0.9327,0.9466,0.9477,0.9501,0.9564,0.9607,0.9657,0.9682,0.9676,0.9707,0.9672,0.9754,0.9669,0.9783,0.9709,0.974,0.9746,0.9751,0.9758,0.9662,0.9811,1.0061,1.0087,0.9764,0.9761,0.9759,0,0.9459,0.9543,0.9636,0.9652,0.9668,0.9714,0.9724,0.9743,0.9776,0.9815,0.9836,0.9886,0.9914,0.9955,0.9935,0.9875,1.0053,0.9966,1.0051,1.0052,1.0092,1.0089,1.035,1.0112,1.0112,1.0111,1.0111,0,0.9657,0.9744,0.9711,0.9768,0.9865,0.983,0.9927,0.993,0.9949,1.0008,0.9958,1.0016,0.9986,1.0042,1.0028,1.0125,1.0138,1.0136,1.0132,1.0141,1.0141,1.016,1.0148,1.0118,1.0117,1.0115,1.0114,0,0.986,0.9841,0.9938,0.9945,0.9949,1.002,1.0027,1.0082,1.0075,1.0151,1.0167,1.0157,1.022,1.0204,1.0274,1.0265,1.0386,1.0367,1.0377,1.0372,1.0458,1.045,1.074,1.0777,1.0516,1.0519,1.0521,0,0.9987,1.0052,1.0066,1.01,1.0112,1.0169,1.0201,1.017,1.0206,1.024,1.0291,1.0349,1.0394,1.0499,1.0499,1.0553,1.0535,1.0633,1.0543,1.055,1.0536,1.0532,1.0539,1.0651,1.0654,1.0656,1.0658,0,1.0216,1.0203,1.0249,1.0293,1.0332,1.0365,1.0395,1.0427,1.0398,1.0442,1.0504,1.0538,1.0608,1.0668,1.0717,1.073,1.0691,1.0686,1.0709,1.0719,1.0721,1.0721,1.0425,1.068,1.0678,1.0676,1.0675,1.0674,1.0385,1.044,1.0457,1.0511,1.0529,1.0558,1.0609,1.0608,1.0658,1.071,1.069,1.0762,1.0787,1.0849,1.0868,1.0926,1.0889,1.0922,1.093,1.0939,1.0949,1.0712,1.0935,1.0934,1.0934,1.0933,1.0933,0,1.0611,1.0619,1.0668,1.0709,1.0752,1.0708,1.0739,1.0778,1.0841,1.0866,1.091,1.0983,1.104,1.1045,1.1099,1.1145,1.1128,1.116,1.1157,1.116,1.0979,1.0954,1.1173,1.1173,1.1173,1.1173,1.1173,1.1172,1.0733,1.0823,1.0813,1.0913,1.0921,1.0988,1.101,1.1037,1.1056,1.1138,1.1184,1.1186,1.1204,1.126,1.1311,1.1311,1.1334,1.1373,1.1367,1.1197,1.1173,1.115,1.1126,1.1378,1.1378,1.1543,1.1545,1.1546]},{"header":{"parameterUnit":"m.s-1","parameterCategory":1,"la1":30.2991,"la2":30.254,"lo1":-89.0895,"lo2":-89.0444,"dy":0.0017,"dx":0.0017,"nx":28,"ny":28,"refTime":"2024-10-13T21:00:00:Z","depth":0,"parameterNumber":3,"parameterNumberName":"V-component_of_WINDS"},"data":[0,0,0,0,0,0,0,0,0,0,0,0,0,0,0,0,0,0,0,0,0,0,0,0,0,0,0,0,0,0,0,0,0,0,0,0,0,0,0,0,0,0,0,0,0,0,0,0,0,0,0,0,0,0,0,0,0,0,0.2794,0.2793,0,0.2755,0.2755,0.2755,0.263,0.2627,0.2625,0.2622,0.2588,0.259,0.2591,0,0,0,0,0,0,0,0,0,0,0,0,0,0.2764,0.2765,0.2794,0.2793,0.2793,0.2755,0.2755,0.2754,0.2631,0.2627,0.2624,0.2621,0.2587,0.2589,0.2591,0,0,0,0,0,0,0,0,0,0,0,0,0,0.2757,0.2766,0.2794,0.2726,0.272,0.2756,0.2755,0.2754,0.2631,0.2627,0.2623,0.2619,0.2587,0.2589,0.2592,0.2691,0,0,0.26,0.2601,0,0,0,0,0,0,0,0,0.2757,0.2758,0.2737,0.2731,0.2724,0.2693,0.2732,0.2733,0.2632,0.2665,0.2622,0.2617,0.2627,0.2626,0.2628,0.269,0.2688,0.26,0.2601,0.2602,0.2603,0,0,0,0,0,0,0,0.2758,0.2759,0.2779,0.2737,0.2729,0.2699,0.2694,0.2732,0.267,0.2662,0.2653,0.265,0.2622,0.2626,0.2626,0.2688,0.26,0.2602,0.2604,0.2605,0.2828,0.2833,0,0,0,0,0,0,0.2767,0.276,0.278,0.2778,0.273,0.2703,0.2697,0.2707,0.2669,0.2659,0.2653,0.2644,0.2623,0.2623,0.2625,0.2738,0.2602,0.2605,0.2606,0.2824,0.2829,0.2834,0,0,0,0,0,0,0.2767,0.277,0.2781,0.2766,0.2765,0.2708,0.2721,0.2709,0.2712,0.2663,0.2652,0.2668,0.262,0.2621,0.2675,0.2735,0.2606,0.2608,0.2819,0.2826,0.2832,0.2967,0,0,0,0,0,0,0.2767,0.2771,0.2807,0.2768,0.2767,0.2832,0.2725,0.2711,0.2716,0.2703,0.2673,0.2664,0.2617,0.2672,0.2678,0.2736,0.261,0.2813,0.2822,0.283,0.2957,0.2977,0.2995,0,0,0,0,0,0.2766,0.2848,0.281,0.2813,0.2811,0.2836,0.2835,0.2777,0.2721,0.2758,0.2726,0.2665,0.2727,0.2678,0.2684,0.2744,0.2809,0.2819,0.2829,0.2948,0.2973,0.2994,0,0,0,0,0,0,0.2899,0.2842,0.2799,0.287,0.2858,0.2814,0.2859,0.2806,0.2811,0.28,0.2729,0.2723,0.2788,0.2771,0.2718,0.2838,0.2758,0.277,0.2847,0.287,0.2889,0.2892,0.2612,0,0,0,0,0,0.2936,0.2959,0.2909,0.2977,0.2973,0.2917,0.2926,0.2882,0.2868,0.2863,0.2835,0.2825,0.2842,0.2855,0.2868,0.2953,0.2945,0.2997,0.3016,0.3032,0.3043,0.3087,0.311,0.2867,0.2867,0.2867,0,0,0.3014,0.2985,0.3005,0.3003,0.2988,0.3015,0.2914,0.2947,0.2967,0.2869,0.2917,0.2897,0.2881,0.2951,0.298,0.2939,0.3108,0.3045,0.3058,0.306,0.31,0.3123,0.3143,0.2874,0.2872,0.2871,0,0,0.3169,0.315,0.3204,0.3191,0.3169,0.3132,0.3145,0.3109,0.3091,0.3138,0.3064,0.3087,0.3118,0.311,0.311,0.326,0.3205,0.3267,0.3366,0.341,0.3429,0.3445,0.35,0.352,0.3278,0.3278,0.3278,0,0.3269,0.3305,0.3239,0.3276,0.3277,0.3187,0.3242,0.3233,0.3219,0.3222,0.3176,0.3212,0.3195,0.3261,0.3298,0.3301,0.3314,0.327,0.3431,0.3447,0.3462,0.3513,0.3533,0.3286,0.3285,0.3284,0.3283,0,0.3429,0.3455,0.3501,0.3487,0.3493,0.354,0.3482,0.3497,0.3452,0.342,0.3469,0.3445,0.3451,0.3464,0.3422,0.3525,0.35,0.3443,0.3362,0.3494,0.354,0.3559,0.3297,0.3294,0.3292,0.329,0,0,0.3668,0.3615,0.3633,0.3625,0.3594,0.3614,0.3656,0.366,0.3674,0.3667,0.3701,0.3729,0.3676,0.3676,0.3632,0.367,0.3791,0.3608,0.3607,0.3644,0.3903,0.3946,0.397,0.3753,0.3756,0.3759,0.3905,0,0.3816,0.3883,0.3824,0.3903,0.3927,0.3841,0.3877,0.3863,0.3834,0.3851,0.3818,0.3839,0.3768,0.3767,0.38,0.3769,0.3842,0.3757,0.3786,0.3787,0.3793,0.3994,0.404,0.4179,0.3922,0.3925,0.3928,0,0.3997,0.3995,0.4076,0.4039,0.4047,0.4081,0.4079,0.4096,0.4079,0.4054,0.4054,0.3999,0.4039,0.3958,0.4012,0.3956,0.3964,0.395,0.3954,0.3955,0.3867,0.4002,0.4222,0.4243,0.3956,0.3953,0.3951,0,0.4164,0.4182,0.4232,0.4228,0.4186,0.4212,0.4196,0.4174,0.418,0.4179,0.4183,0.4188,0.4191,0.4196,0.4145,0.409,0.4206,0.4121,0.4188,0.419,0.4218,0.4217,0.4443,0.4222,0.4221,0.4221,0.4221,0,0.4335,0.4389,0.4307,0.4338,0.4395,0.4327,0.4386,0.4361,0.4342,0.4368,0.4294,0.4321,0.425,0.4269,0.4229,0.4281,0.4283,0.4265,0.4254,0.4272,0.4275,0.4278,0.4267,0.4226,0.4225,0.4224,0.4223,0,0.4532,0.4479,0.4529,0.4484,0.4474,0.4518,0.448,0.4508,0.4473,0.4507,0.4511,0.4457,0.4475,0.4424,0.4435,0.4408,0.4483,0.4455,0.4488,0.448,0.4551,0.4546,0.4788,0.4816,0.4576,0.4579,0.4581,0,0.4646,0.4684,0.4642,0.4653,0.4641,0.466,0.4665,0.4599,0.4608,0.459,0.4621,0.4632,0.4639,0.4673,0.4636,0.4644,0.4617,0.4701,0.4618,0.4635,0.4619,0.4618,0.4622,0.4719,0.4722,0.4724,0.4726,0,0.4852,0.4824,0.4833,0.4833,0.484,0.4838,0.483,0.4844,0.4774,0.4788,0.4804,0.4809,0.4819,0.4833,0.4833,0.4817,0.4762,0.4752,0.4768,0.4788,0.4806,0.4798,0.4536,0.4748,0.4745,0.4744,0.4743,0.4742,0.5011,0.5041,0.5016,0.5029,0.5015,0.501,0.5033,0.5,0.5013,0.5015,0.4975,0.5001,0.4982,0.4975,0.4966,0.4986,0.4947,0.4971,0.4977,0.4984,0.4996,0.4802,0.4985,0.4985,0.4984,0.4984,0.4983,0,0.5215,0.5194,0.5206,0.5196,0.5206,0.5149,0.5138,0.5151,0.5173,0.5159,0.5166,0.5186,0.5198,0.5161,0.5168,0.5192,0.5166,0.5196,0.5194,0.5192,0.503,0.5015,0.5216,0.5216,0.5216,0.5216,0.5216,0.5216,0.5322,0.5369,0.5338,0.5378,0.5357,0.538,0.5378,0.5373,0.5361,0.5386,0.5395,0.537,0.5347,0.5352,0.5361,0.535,0.5356,0.5396,0.5376,0.5226,0.5203,0.5182,0.5168,0.5397,0.5398,0.5536,0.5537,0.5538]}]]